"Pseudo-MPEC" for lbn89s

Created 2023 Sep 27 2:22:20 UT using Find_Orb

Click here for an explanation of pseudo-MPECs

 
 Astrometry: 
     lbn89s *KB2023 08 232sZoUq3XXvmJq0%$phsK%g#kwo=2MjxFJmVAZhTZdG_62d:(-g-2H36
     lbn89s  KB2023 08 23.dW,Yur,eAstrometryJ-jqceQ+?2ogK+yi[vgBbv,@\f;TL$3JuH36
     lbn89s  KB2023 08 23P6L[Uredacted;8QBclickc6u-j0)2RFb_fD%[x+;?fQo#QWp\T3H36
     lbn89s  KB2023 09 09L)@=:$OlJk+j50K3fi[R@*Twhere5fGq@[x#Uo=Yx0)i;s$xkBe4H36
     lbn89s  KB2023 09 09WqTa+Ql-fhiCo-WGq:6fhnlf_hQsy#'a)glOtn;o^9Epforf1V]yH36
     lbn89s  KB2023 09 09K)edrq8qts2W`$,4sGPB+j:Q`Gq7*J46`aexplanation1[lDlRxH36

Station data:
(H36) Sandlot Observatory, Scranton  (N38.797690 W95.706400)  US/Kansas.
   Observer G. Hug. 0.56-m reflector + CCD.

Orbital elements:  lbn89s
   Perihelion 2023 Nov 12.49623 +/- 24.7 TT = 11:54:34 (JD 2460260.99623)
Epoch 2023 Sep  9.0 TT = JDT 2460196.5   Earth MOID: 0.1401      AutoNEOCP
M 306.45839821 +/- 37               (J2000 ecliptic)
n   0.83015089 +/- 0.263            Peri.  178.26614 +/- 13
a   1.12123854 +/- 0.237            Node   237.50602 +/- 20
e   0.2505414 +/- 0.109             Incl.    9.60452 +/- 2.4
P   1.19/433.65d           H 21.32  G  0.15   U 11.8
q 0.84032184 +/- 0.059    Q 1.40215525 +/- 0.418
From 6 observations 2023 Aug. 23-Sept. 9; mean residual 0".40
Residuals in arcseconds: 
230823 H36  .45-  .14-    230823 H36  .17+  .39+    230909 H36  .04+  .30-    
230823 H36  .28+  .25-    230909 H36  .06+  .62-    230909 H36  .10-  .92+    

Ephemerides (geocentric):
Date (UTC) HH   RA             Dec           delta  r     elong  mag " sig PA
---- --------  ------------   ------------  ------ ------ -----  --- --------
2023 09 27 02  16 31 57.225   +18 53 18.68  .21641 .93856  66.8 21.5 2421  68
2023 09 27 03  16 31 53.647   +18 53 07.00  .21631 .93840  66.8 21.5 2431  68
2023 09 27 04  16 31 50.060   +18 52 55.29  .21621 .93825  66.7 21.5 2442  68
2023 09 27 05  16 31 46.462   +18 52 43.54  .21611 .93809  66.7 21.5 2453  68
2023 09 27 06  16 31 42.853   +18 52 31.77  .21601 .93794  66.6 21.5 2464  68
2023 09 27 07  16 31 39.235   +18 52 19.96  .21591 .93779  66.6 21.5 2475  68
2023 09 27 08  16 31 35.606   +18 52 08.12  .21581 .93763  66.5 21.5 2486  68
2023 09 27 09  16 31 31.967   +18 51 56.25  .21571 .93748  66.5 21.5 2497  68
2023 09 27 10  16 31 28.317   +18 51 44.34  .21561 .93733  66.4 21.5 2508  68
2023 09 27 11  16 31 24.657   +18 51 32.40  .21551 .93717  66.4 21.5 2519  68
2023 09 27 12  16 31 20.987   +18 51 20.43  .21541 .93702  66.4 21.5 2530  68
2023 09 27 13  16 31 17.306   +18 51 08.42  .21531 .93687  66.3 21.5 2541  68
2023 09 27 14  16 31 13.615   +18 50 56.39  .21520 .93671  66.3 21.5 2552  68
2023 09 27 15  16 31 09.913   +18 50 44.32  .21510 .93656  66.2 21.5 2563  68
2023 09 27 16  16 31 06.200   +18 50 32.21  .21500 .93641  66.2 21.5 2575  68
2023 09 27 17  16 31 02.477   +18 50 20.07  .21490 .93626  66.1 21.5 2586  68
2023 09 27 18  16 30 58.743   +18 50 07.90  .21480 .93610  66.1 21.5 2597  68
2023 09 27 19  16 30 54.999   +18 49 55.69  .21470 .93595  66.0 21.6 2609  68
2023 09 27 20  16 30 51.244   +18 49 43.44  .21460 .93580  66.0 21.6 2620  68
2023 09 27 21  16 30 47.478   +18 49 31.17  .21450 .93564  66.0 21.6 2632  68
2023 09 27 22  16 30 43.701   +18 49 18.85  .21439 .93549  65.9 21.6 2643  68
2023 09 27 23  16 30 39.914   +18 49 06.51  .21429 .93534  65.9 21.6 2655  68
2023 09 28 00  16 30 36.115   +18 48 54.12  .21419 .93519  65.8 21.6 2666  68
2023 09 28 01  16 30 32.306   +18 48 41.70  .21409 .93503  65.8 21.6 2678  68
2023 09 28 02  16 30 28.486   +18 48 29.25  .21399 .93488  65.7 21.6 2690  68
2023 09 28 03  16 30 24.655   +18 48 16.75  .21389 .93473  65.7 21.6 2702  68
2023 09 28 04  16 30 20.813   +18 48 04.23  .21378 .93458  65.7 21.6 2714  68
2023 09 28 05  16 30 16.961   +18 47 51.66  .21368 .93443  65.6 21.6 2725  68
2023 09 28 06  16 30 13.097   +18 47 39.06  .21358 .93427  65.6 21.6 2737  68
2023 09 28 07  16 30 09.222   +18 47 26.42  .21348 .93412  65.5 21.6 2749  68
2023 09 28 08  16 30 05.336   +18 47 13.75  .21338 .93397  65.5 21.6 2761  68
2023 09 28 09  16 30 01.439   +18 47 01.03  .21327 .93382  65.4 21.6 2774  68
2023 09 28 10  16 29 57.531   +18 46 48.28  .21317 .93367  65.4 21.6 2786  68
2023 09 28 11  16 29 53.611   +18 46 35.49  .21307 .93352  65.3 21.6 2798  68
2023 09 28 12  16 29 49.681   +18 46 22.67  .21297 .93336  65.3 21.6 2810  68
2023 09 28 13  16 29 45.739   +18 46 09.80  .21286 .93321  65.2 21.6 2822  68
2023 09 28 14  16 29 41.786   +18 45 56.90  .21276 .93306  65.2 21.6 2835  68
2023 09 28 15  16 29 37.822   +18 45 43.95  .21266 .93291  65.2 21.6 2847  68
2023 09 28 16  16 29 33.846   +18 45 30.97  .21256 .93276  65.1 21.6 2859  68
2023 09 28 17  16 29 29.859   +18 45 17.95  .21245 .93261  65.1 21.6 2872  68
2023 09 28 18  16 29 25.861   +18 45 04.89  .21235 .93246  65.0 21.6 2884  68
2023 09 28 19  16 29 21.851   +18 44 51.79  .21225 .93231  65.0 21.6 2897  68
2023 09 28 20  16 29 17.830   +18 44 38.65  .21214 .93216  64.9 21.6 2910  68
2023 09 28 21  16 29 13.797   +18 44 25.47  .21204 .93200  64.9 21.6 2922  68
2023 09 28 22  16 29 09.753   +18 44 12.25  .21194 .93185  64.8 21.6 2935  68
2023 09 28 23  16 29 05.697   +18 43 58.99  .21183 .93170  64.8 21.6 2948  68
2023 09 29 00  16 29 01.630   +18 43 45.69  .21173 .93155  64.8 21.6 2961  68
2023 09 29 01  16 28 57.551   +18 43 32.34  .21163 .93140  64.7 21.6 2974  68